Showing default

YOTSUBA-KULOVER, 65941

Orbit data source: Space-Track

YOTSUBA-KULOVER, 65941 is a Japanese payload satellite in LEO that was delivered to the ISS. Payload-class satellites include a variety of spacecraft equipped with specific instruments for various scientific and technological missions. These include communications satellites like Starlink; space stations such as the ISS; scientific satellites like the Hubble; Earth observation satellites from companies like Planet Labs, Umbra, and HawkEye 360; GPS; miniature CubeSats for education and research; and military/defense satellites.

Loading next visibility...
Identifier
65941, 1998-067XN
Orbit
LEO
Country
Flag of JPJP / JPN
Related business
Manufacturer
Kyutech
Mission
Operational Amateur Technology
Bus & Motor
CUBESAT 2U, Unknown motor
Mass
1.8 kg wet, 1.8 kg dry
Launch date (UTC)
1998-11-20 (27 years ago)
Launch vehicle
FALCON 9
Launch site
Tyuratam Missile And Space Complex (TTMTR)
Object type
Payload
Rocket body
Debris
Shape & HBR
Box + 1 Pan, 0.1 m
Radar Cross Section
0.028 m²

Expand to show TLE details & history
Last TLE update: 13 hours ago

TLE from 13 hours ago
0 YOTSUBA-KULOVER
1 65941U 98067XN  26036.72229396  .00156224  00000-0  12468-2 0  9995
2 65941  51.6244 221.6848 0004119 232.1439 127.9186 15.70112599 18462
Epoch: 2026-02-05T17:20Z
TLE epoch observation values (Epoch: 2026-02-05T17:20:06.198Z)
Latitude
Longitude
-174.21147°
Altitude
361.027 km
Speed
7.693 km/s
True Right ascension
14h 46m 44s
True Declination
0° 00' 00"
Sunlit
Object was in daylight at epoch
Visualization orbit readout
Latitude
Unknown
Longitude
Unknown
Altitude
Unknown
Speed
Unknown
Apparent Right ascension
Unknown
Apparent Declination
Unknown
Sunlit
N/A
Visualization observer readout
Local Sidereal Time
08:21:13
Azimuth
Unknown
Elevation
Unknown
Doppler factor
Unknown
Orbital elements
Apogee altitude
361.865 km
Perigee altitude
356.315 km
Semi-major axis
6,737.227 km
Eccentricity
0.00041
Inclination
51.6244°
RAAN
221.6848°
Arg. of periapsis
232.1439°
True anomaly
127.95582°
Mean anomaly
127.9186°
Eccentric anomaly
127.93721°
Mean motion
3.92484 °/min
Orbital period
91.72 mins
BSTAR
0.0012468
Loading maneuver chart data...
Computing Atmospheric mass density...

Documentation

Showing up to 5 results
|